* Astronomy

Members Login
Username 
 
Password 
    Remember Me  
Post Info TOPIC: Asteroid 2012 VE5


L

Posts: 131433
Date:
Asteroid 2012 VE5
Permalink  
 


Orbital elements:
2012 VE5                                                 Earth MOID = 0.2579 AU
Epoch 2012 Sept. 30.0 TT = JDT 2456200.5                MPC
M   5.61258              (2000.0)            P               Q
n   0.41060518     Peri.  228.55093     +0.76698741     +0.64040660
a   1.7927501      Node    91.58714     -0.57609939     +0.71480587
e   0.2922028      Incl.    2.30026     -0.28255938     +0.28094830
P   2.40           H   18.8           G   0.15           U   9

MPEC 2012 - V14



__________________
Page 1 of 1  sorted by
 
Quick Reply

Please log in to post quick replies.



Create your own FREE Forum
Report Abuse
Powered by ActiveBoard